www.pogodaiklimat.ru

Погода и климат >> Архив погоды >> Индия >> Jhansi


ПОГОДА в Jhansi

  • Прогноз погоды в Jhansi
  • Монитор погоды в Jhansi
  • Климат города

АРХИВ ПОГОДЫ в Jhansi

Время (UTC), дата Ветер
(напр.,м/с)
 
Видим.   Явления Облачность Т
(С)
Тd
(С)
f
(%)
Тe
(С)
Тes
(С)
Комфортность P
(гПа)
Po
(гПа)
Тmin
(С)
Tmax
(С)
R
(мм)
R24
(мм)
S
(см)
06 12.12 СЗ 1 2000 м мгла 5/0
[Ac trans Ci fib]
+17.4 +9.4 59 +18 +27 1020.8 1021.0
12 12.12 В 1 2000 м мгла 5/3 1050 м
[Cu hum Ac trans]
+18.4 +10.6 60 +20 +20 1017.9 1018.0 +21.5
00 13.12 штиль 0 2000 м мгла 5/3 1050 м
[Cu hum Ac trans]
+13.0 +7.3 68 +13 +13 1019.3 1019.0
03 13.12 СЗ 1 2000 м мгла ясно +12.8 +10.1 84 +13 +15 1022.3 1022.0 +10.8 +21.5
06 13.12 С 2 2000 м мгла ясно +19.4 +11.0 58 +21 +31 комфорт 1022.5 1023.0
09 13.12 СВ 2 4000 м ясно +22.0 +10.3 47 +24 +30 комфорт 1020.2 1020.0
12 13.12 СЗ 2 2000 м мгла ясно +19.0 +12.2 65 +21 +21 комфорт 1019.1 1019.0 +22.5
00 14.12 штиль 0 1000 м дымка ясно +13.4 +7.7 68 +13 +13 1020.2 1020.0
03 14.12 СЗ 1 2000 м мгла ясно +13.2 +9.7 79 +13 +16 1024.7 1025.0 +11.4 +22.5
06 14.12 СЗ 3 2000 м мгла ясно +18.6 +10.9 61 +19 +28 1025.1 1025.0
09 14.12 СЗ 1 2000 м мгла 4/0
[Ac trans Ci fib]
+21.8 +9.6 46 +23 +29 комфорт 1022.0 1022.0
12 14.12 СЗ 1 2000 м мгла 4/0
[Ac trans Ci fib]
+18.8 +12.4 66 +21 +21 комфорт 1020.2 1020.0 +22.0
00 15.12 штиль 0 1000 м дымка ясно +10.4 +7.9 84 +10 +10 1024.2 1024.0
03 15.12 штиль 0 2000 м мгла ясно +12.0 +8.4 79 +12 +14 1026.1 1026.0 +9.1 +22.0
06 15.12 СЗ 1 4000 м ясно +19.6 +7.0 44 +21 +32 комфорт 1025.1 1025.0
09 15.12 СЗ 2 4000 м ясно +22.0 +5.1 33 +22 +29 комфорт 1023.0 1023.0
12 15.12 штиль 0 2000 м мгла ясно +19.0 +9.6 54 +20 +20 1021.8 1022.0 +22.8
00 16.12 штиль 0 1000 м дымка ясно +7.6 +5.8 88 +7 +7 1024.6 1025.0
03 16.12 штиль 0 1000 м дымка ясно +10.0 +7.9 87 +9 +12 1026.8 1027.0 +6.7 +22.8
06 16.12 СВ 1 4000 м ясно +19.6 +3.6 35 +21 +32 комфорт 1026.1 1026.0
09 16.12 СВ 1 4000 м ясно +21.4 +5.9 36 +22 +29 комфорт 1022.6 1023.0
12 16.12 С 1 2000 м мгла ясно +18.4 +9.3 55 +20 +20 1021.6 1022.0 +22.5
00 17.12 штиль 0 1000 м дымка ясно +9.4 +7.3 87 +9 +9 1023.1 1023.0
03 17.12 штиль 0 2000 м мгла 3/0
[Ci fib]
+11.4 +6.8 73 +11 +13 1025.1 1025.0 +8.1 +22.5
06 17.12 В 1 4000 м 3/0
[Ci fib]
+19.4 +4.5 37 +21 +31 комфорт 1023.6 1024.0
09 17.12 В 2 4000 м ясно +21.8 +6.0 36 +22 +28 комфорт 1020.2 1020.0
12 17.12 В 1 2000 м мгла ясно +19.0 +11.4 61 +21 +21 комфорт 1019.4 1019.0 +22.5
00 18.12 штиль 0 1000 м дымка ясно +10.6 +9.0 90 +10 +10 1021.8 1022.0
03 18.12 З 1 1000 м дымка ясно +12.4 +7.9 74 +12 +15 1023.3 1023.0 +9.0 +22.5
06 18.12 СЗ 1 4000 м ясно +18.4 +7.9 50 +20 +30 1022.9 1023.0
09 18.12 СЗ 1 4000 м ясно +22.0 +6.3 36 +23 +30 комфорт 1019.7 1020.0
12 18.12 штиль 0 2000 м мгла ясно +19.0 +10.9 59 +20 +20 1018.9 1019.0 +23.7
00 19.12 штиль 0 1000 м дымка ясно +8.6 +5.5 81 +8 +8 1021.2 1021.0

 

Местоположение метеостанции Jhansi (Uttar Pradesh, Индия): широта 25.45 долгота 78.62 высота над уровнем моря 258 м.

В архиве по умолчанию представлена погода в Jhansi за последнюю неделю. Архивные данные за месяц целиком и за предыдущие месяцы, начиная с января 2011 года, Вы можете получить, выбрав интересующий диапазон дат из раскрывающегося списка и нажав кнопку "Ввод!".


*Определитесь, кто Вы:
робот инопланетянин человек

Внимание! Время в таблицах - всемирное. Для получения местного времени необходимо прибавить поправку, которая в Jhansi равна 5.5 ч.

Смотрите также архив погоды в соседних городах и на ближайших метеорологических станциях:

Погода в Tikamgarh (Madhya Pradesh, Индия) (79 км)
Погода в Nowgong (Madhya Pradesh, Индия) (94 км)
Погода в Gwalior (Madhya Pradesh, Индия) (94 км)
Погода в Shivpuri (Madhya Pradesh, Индия) (98 км)
Погода в Khajuraho (Madhya Pradesh, Индия) (141 км)
Погода в Guna (Madhya Pradesh, Индия) (158 км)
Погода в Hamirpur (Uttar Pradesh, Индия) (163 км)
Погода в Banda (Uttar Pradesh, Индия) (176 км)
Погода в Sagar (Madhya Pradesh, Индия) (178 км)
Погода в Sheopur (Madhya Pradesh, Индия) (196 км)

Пояснения к столбцам:

Ветер - указаны скорость ветра в м/с - средняя за 10 мин, порывы в срок и между сроками (в фигурных скобках) и направление, откуда дует ветер: С - северный, СВ - северо-восточный, В - восточный, ЮВ - юго-восточный, Ю - южный, ЮЗ - юго-западный, З - западный, СЗ - северо-западный.
Видимость - горизонтальная дальность видимости в метрах или километрах. При видимости от 1 до 10 км при отсутствии осадков обычно наблюдается дымка, при ухудшении видимости до 1 км и менее - туман. В сухую погоду видимость может ухудшаться дымом, пылью или мглою.
Явления - указаны атмосферные явления, наблюдавшиеся в срок или в последний час перед сроком; фигурными скобками обозначены явления, наблюдавшиеся между сроками (за 1-3 часа до срока); квадратными скобками обозначены град или гололедные отложения с указанием их диаметра в мм.
Облачность - указаны через наклонную черту общая и нижняя облачность в баллах и высота нижней границы облаков в метрах; квадратными скобками обозначены формы облаков: Ci - перистые, Cs - перисто-слоистые, Cc - перисто-кучевые, Ac - высококучевые, As - высокослоистые, Sc - слоисто-кучевые, Ns - слоисто-дождевые, Cu - кучевые, Cb - кучево-дождевые. Подробнее классификацию облаков см. в Атласе облаков (PDF).
T - Температура воздуха - температура, измеренная на высоте 2 м над землей.
Td - Температура точки росы - температура, при понижении до которой содержащийся в воздухе водяной пар достигнет насыщения.
f - Относительная влажность воздуха - влажноcть воздуха, измеренная на высоте 2 м над землей.
Te - Эффективная температура - температура, которую ощущает одетый по сезону человек в тени. Характеристика душности погоды. При расчете учитывается влияние влажности воздуха и скорости ветра на теплоощущения человека.
Tes - Эффективная температура на солнце - температура, которую ощущает человек, с поправкой на солнечный нагрев. Характеристика знойности погоды. Зависит от высоты солнца над горизонтом, облачности и скорости ветра. Ночью, в пасмурную погоду, а также при ветре 12 м/с и более поправка равна нулю.
P - Атмосферное давление - приведенное к уровню моря атмосферное давление.
Po - Атмосферное давление - измеренное на уровне метеостанции атмосферное давление.
Tmin - Минимальная температура - минимум температуры воздуха на высоте 2 м над землей.
Tmax - Максимальная температура - максимум температуры воздуха на высоте 2 м над землей.
R - Количество осадков - Количество выпавших осадков за период времени, мм. При наведении курсора мыши на число - период времени, за который выпало указанное количество осадков.
R24 - Количество осадков - Количество выпавших осадков за 24 часа, мм.
S - Снежный покров - Высота снежного покрова, см. При наведении курсора мыши на число - состояние снежного покрова и степень покрытия местности в баллах.